User: anonymous   Login
Location: Unspecified
(0.0000°N, 0.0000°E)
Time: 07:56:50
(UTC+00:00)
Language:

OBJECT K - Orbit

View from above orbital plane
View from above orbital plane
View from above satellite
View from above satellite

Ground track
Ground track

The orbit data is extracted from the following two-line orbital elements,

1 42834U 17042K   20224.15971895  .00000193  00000-0  24600-4 0  9999
2 42834  97.5143 103.8451 0014982 102.4122 257.8775 14.91349595167465
Epoch (UTC): 11 August 2020 03:49:59
Eccentricity: 0.0014982
inclination: 97.5143°
perigee height: 583 km
apogee height: 604 km
right ascension of ascending node: 103.8451°
argument of perigee: 102.4122°
revolutions per day: 14.91349595
mean anomaly at epoch: 257.8775°
orbit number at epoch: 16746

The dashed part of the orbit path shows where the satellite is in the earth's shadow,  

DLR